Time,TemperatureF,DewpointF,PressureIn,WindDirection,WindDirectionDegrees,WindSpeedMPH,WindSpeedGustMPH,Humidity,HourlyPrecipIn,Conditions,Clouds,dailyrainin,SoftwareType,DateUTC
2013-01-29 00:01:00,33.8,31.7,30.24,NW,311,0.0,0.0,92,0.00,,,0.00,WeatherCatV1.11B39,2013-01-29 08:01:00,
2013-01-29 00:06:00,33.7,31.6,30.24,NW,311,0.0,0.0,92,0.00,,,0.00,WeatherCatV1.11B39,2013-01-29 08:06:00,
2013-01-29 00:11:00,33.5,31.2,30.24,NW,311,0.0,0.0,91,0.00,,,0.00,WeatherCatV1.11B39,2013-01-29 08:11:00,
2013-01-29 00:16:00,33.4,31.3,30.24,NW,311,0.0,0.0,92,0.00,,,0.00,WeatherCatV1.11B39,2013-01-29 08:16:00,
2013-01-29 00:21:00,33.3,31.2,30.24,NW,311,0.0,0.0,92,0.00,,,0.00,WeatherCatV1.11B39,2013-01-29 08:21:00,
2013-01-29 00:26:00,33.2,31.1,30.24,NW,311,0.0,0.0,92,0.00,,,0.00,WeatherCatV1.11B39,2013-01-29 08:26:00,
2013-01-29 00:31:00,33.0,30.9,30.24,NW,311,0.0,0.0,92,0.00,,,0.00,WeatherCatV1.11B39,2013-01-29 08:31:00,
2013-01-29 00:36:00,32.9,30.6,30.24,NW,311,0.0,0.0,91,0.00,,,0.00,WeatherCatV1.11B39,2013-01-29 08:36:00,
2013-01-29 00:41:00,32.8,30.5,30.24,NW,311,0.0,0.0,91,0.00,,,0.00,WeatherCatV1.11B39,2013-01-29 08:41:00,
2013-01-29 00:46:00,32.6,30.5,30.24,NW,311,0.0,1.0,92,0.00,,,0.00,WeatherCatV1.11B39,2013-01-29 08:46:00,
2013-01-29 00:51:00,32.9,31.1,30.24,NW,311,0.0,2.0,93,0.00,,,0.00,WeatherCatV1.11B39,2013-01-29 08:51:00,
2013-01-29 00:56:00,32.9,31.1,30.24,NW,311,0.0,0.0,93,0.00,,,0.00,WeatherCatV1.11B39,2013-01-29 08:56:00,
2013-01-29 01:01:00,32.9,31.1,30.24,NW,311,0.0,0.0,93,0.00,,,0.00,WeatherCatV1.11B39,2013-01-29 09:01:00,
2013-01-29 01:06:00,32.9,31.1,30.24,NW,311,0.0,0.0,93,0.00,,,0.00,WeatherCatV1.11B39,2013-01-29 09:06:00,
2013-01-29 01:11:00,32.7,30.9,30.24,NW,311,0.0,0.0,93,0.00,,,0.00,WeatherCatV1.11B39,2013-01-29 09:11:00,
2013-01-29 01:16:00,32.5,30.7,30.25,NW,311,0.0,0.0,93,0.00,,,0.00,WeatherCatV1.11B39,2013-01-29 09:16:00,
2013-01-29 01:21:00,32.3,30.5,30.24,NW,311,0.0,0.0,93,0.00,,,0.00,WeatherCatV1.11B39,2013-01-29 09:21:00,
2013-01-29 01:26:00,32.5,30.7,30.24,NW,311,0.0,0.0,93,0.00,,,0.00,WeatherCatV1.11B39,2013-01-29 09:26:00,
2013-01-29 01:31:00,32.7,31.2,30.24,NW,311,0.0,1.0,94,0.00,,,0.00,WeatherCatV1.11B39,2013-01-29 09:31:00,
2013-01-29 01:36:00,33.2,31.7,30.25,NW,311,0.0,0.0,94,0.00,,,0.00,WeatherCatV1.11B39,2013-01-29 09:36:00,
2013-01-29 01:41:00,33.4,31.9,30.25,NW,311,0.0,0.0,94,0.00,,,0.00,WeatherCatV1.11B39,2013-01-29 09:41:00,
2013-01-29 01:46:00,33.5,32.2,30.25,NW,311,0.0,0.0,95,0.00,,,0.00,WeatherCatV1.11B39,2013-01-29 09:46:00,
2013-01-29 01:52:00,33.6,32.3,30.25,NW,311,0.0,0.0,95,0.00,,,0.00,WeatherCatV1.11B39,2013-01-29 09:52:00,
2013-01-29 01:57:00,33.5,32.0,30.25,NW,311,0.0,0.0,94,0.00,,,0.00,WeatherCatV1.11B39,2013-01-29 09:57:00,
2013-01-29 02:02:00,33.4,31.9,30.25,NW,311,0.0,0.0,94,0.00,,,0.00,WeatherCatV1.11B39,2013-01-29 10:02:00,
2013-01-29 02:07:00,33.3,31.8,30.25,NW,311,0.0,0.0,94,0.00,,,0.00,WeatherCatV1.11B39,2013-01-29 10:07:00,
2013-01-29 02:12:00,33.2,31.7,30.25,NW,311,0.0,0.0,94,0.00,,,0.00,WeatherCatV1.11B39,2013-01-29 10:12:00,
2013-01-29 02:17:00,33.0,31.5,30.25,NW,311,0.0,0.0,94,0.00,,,0.00,WeatherCatV1.11B39,2013-01-29 10:17:00,
2013-01-29 02:22:00,32.9,31.4,30.25,NW,311,0.0,0.0,94,0.00,,,0.00,WeatherCatV1.11B39,2013-01-29 10:22:00,
2013-01-29 02:27:00,32.8,31.3,30.25,NW,311,0.0,0.0,94,0.00,,,0.00,WeatherCatV1.11B39,2013-01-29 10:27:00,
2013-01-29 02:32:00,32.5,31.0,30.25,NW,311,0.0,0.0,94,0.00,,,0.00,WeatherCatV1.11B39,2013-01-29 10:32:00,
2013-01-29 02:37:00,32.3,30.8,30.25,NW,311,0.0,0.0,94,0.00,,,0.00,WeatherCatV1.11B39,2013-01-29 10:37:00,
2013-01-29 02:42:00,32.2,30.7,30.25,NW,311,0.0,0.0,94,0.00,,,0.00,WeatherCatV1.11B39,2013-01-29 10:42:00,
2013-01-29 02:47:00,32.1,30.6,30.25,NW,311,0.0,0.0,94,0.00,,,0.00,WeatherCatV1.11B39,2013-01-29 10:47:00,
2013-01-29 02:52:00,31.9,30.4,30.25,NW,311,0.0,0.0,94,0.00,,,0.00,WeatherCatV1.11B39,2013-01-29 10:52:00,
2013-01-29 02:57:00,31.8,30.3,30.25,NW,311,0.0,0.0,94,0.00,,,0.00,WeatherCatV1.11B39,2013-01-29 10:57:00,
2013-01-29 03:02:00,31.9,30.4,30.25,NW,321,0.0,1.0,94,0.00,,,0.00,WeatherCatV1.11B39,2013-01-29 11:02:00,
2013-01-29 03:07:00,32.0,30.5,30.25,NW,321,0.0,0.0,94,0.00,,,0.00,WeatherCatV1.11B39,2013-01-29 11:07:00,
2013-01-29 03:12:00,32.2,30.9,30.25,NNW,330,0.0,3.0,95,0.00,,,0.00,WeatherCatV1.11B39,2013-01-29 11:12:00,
2013-01-29 03:17:00,32.3,31.0,30.25,NNW,330,0.0,0.0,95,0.00,,,0.00,WeatherCatV1.11B39,2013-01-29 11:17:00,
2013-01-29 03:22:00,32.3,31.0,30.25,NNW,330,0.0,0.0,95,0.00,,,0.00,WeatherCatV1.11B39,2013-01-29 11:22:00,
2013-01-29 03:27:00,32.2,30.9,30.25,NNW,330,0.0,0.0,95,0.00,,,0.00,WeatherCatV1.11B39,2013-01-29 11:27:00,
2013-01-29 03:32:00,32.1,30.8,30.25,NNW,330,0.0,0.0,95,0.00,,,0.00,WeatherCatV1.11B39,2013-01-29 11:32:00,
2013-01-29 03:37:00,32.0,30.7,30.25,NNW,330,0.0,0.0,95,0.00,,,0.00,WeatherCatV1.11B39,2013-01-29 11:37:00,
2013-01-29 03:42:00,31.9,30.6,30.25,NNW,330,0.0,0.0,95,0.00,,,0.00,WeatherCatV1.11B39,2013-01-29 11:42:00,
2013-01-29 03:47:00,31.8,30.5,30.25,NNW,330,0.0,0.0,95,0.00,,,0.00,WeatherCatV1.11B39,2013-01-29 11:47:00,
2013-01-29 03:52:00,31.7,30.4,30.25,NNW,330,0.0,0.0,95,0.00,,,0.00,WeatherCatV1.11B39,2013-01-29 11:52:00,
2013-01-29 03:57:00,31.4,30.1,30.25,NNW,330,0.0,0.0,95,0.00,,,0.00,WeatherCatV1.11B39,2013-01-29 11:57:00,
2013-01-29 04:02:00,31.2,29.9,30.25,NNW,330,0.0,0.0,95,0.00,,,0.00,WeatherCatV1.11B39,2013-01-29 12:02:00,
2013-01-29 04:07:00,31.1,29.8,30.25,NNW,330,0.0,0.0,95,0.00,,,0.00,WeatherCatV1.11B39,2013-01-29 12:07:00,
2013-01-29 04:12:00,31.1,29.8,30.25,NNW,330,0.0,0.0,95,0.00,,,0.00,WeatherCatV1.11B39,2013-01-29 12:12:00,
2013-01-29 04:17:00,31.1,29.8,30.25,NNW,330,0.0,0.0,95,0.00,,,0.00,WeatherCatV1.11B39,2013-01-29 12:17:00,
2013-01-29 04:22:00,31.4,30.1,30.25,NNW,330,0.0,1.0,95,0.00,,,0.00,WeatherCatV1.11B39,2013-01-29 12:22:00,
2013-01-29 04:27:00,31.5,30.2,30.25,NNW,330,0.0,0.0,95,0.00,,,0.00,WeatherCatV1.11B39,2013-01-29 12:27:00,
2013-01-29 04:32:00,31.5,30.2,30.25,NNW,330,0.0,0.0,95,0.00,,,0.00,WeatherCatV1.11B39,2013-01-29 12:32:00,
2013-01-29 04:37:00,31.5,30.2,30.25,NNW,330,0.0,0.0,95,0.00,,,0.00,WeatherCatV1.11B39,2013-01-29 12:37:00,
2013-01-29 04:42:00,31.7,30.4,30.25,NNW,330,0.0,0.0,95,0.00,,,0.00,WeatherCatV1.11B39,2013-01-29 12:42:00,
2013-01-29 04:47:00,31.7,30.4,30.24,NNW,330,0.0,0.0,95,0.00,,,0.00,WeatherCatV1.11B39,2013-01-29 12:47:00,
2013-01-29 04:52:00,31.6,30.3,30.25,NNW,330,0.0,0.0,95,0.00,,,0.00,WeatherCatV1.11B39,2013-01-29 12:52:00,
2013-01-29 04:57:00,31.4,30.1,30.25,NNW,330,0.0,0.0,95,0.00,,,0.00,WeatherCatV1.11B39,2013-01-29 12:57:00,
2013-01-29 05:02:00,31.6,30.6,30.25,NNW,330,0.0,0.0,96,0.00,,,0.00,WeatherCatV1.11B39,2013-01-29 13:02:00,
2013-01-29 05:09:00,31.9,30.9,30.25,NNW,330,0.0,1.0,96,0.00,,,0.00,WeatherCatV1.11B39,2013-01-29 13:09:00,
2013-01-29 05:14:00,31.7,30.7,30.25,NNW,330,0.0,0.0,96,0.00,,,0.00,WeatherCatV1.11B39,2013-01-29 13:14:00,
2013-01-29 05:19:00,31.5,30.5,30.25,NNW,330,0.0,0.0,96,0.00,,,0.00,WeatherCatV1.11B39,2013-01-29 13:19:00,
2013-01-29 05:24:00,31.5,30.5,30.25,NNW,330,1.0,1.0,96,0.00,,,0.00,WeatherCatV1.11B39,2013-01-29 13:24:00,
2013-01-29 05:29:00,31.7,30.7,30.25,NNW,330,0.0,0.0,96,0.00,,,0.00,WeatherCatV1.11B39,2013-01-29 13:29:00,
2013-01-29 05:34:00,31.7,30.7,30.25,NNW,330,0.0,0.0,96,0.00,,,0.00,WeatherCatV1.11B39,2013-01-29 13:34:00,
2013-01-29 05:39:00,31.6,30.6,30.25,NNW,330,0.0,0.0,96,0.00,,,0.00,WeatherCatV1.11B39,2013-01-29 13:39:00,
2013-01-29 05:44:00,31.6,30.6,30.25,NNW,330,0.0,0.0,96,0.00,,,0.00,WeatherCatV1.11B39,2013-01-29 13:44:00,
2013-01-29 05:49:00,31.5,30.5,30.25,NNW,330,0.0,0.0,96,0.00,,,0.00,WeatherCatV1.11B39,2013-01-29 13:49:00,
2013-01-29 05:54:00,31.4,30.4,30.25,NNW,330,0.0,0.0,96,0.00,,,0.00,WeatherCatV1.11B39,2013-01-29 13:54:00,
2013-01-29 05:59:00,31.3,30.3,30.25,NNW,330,0.0,0.0,96,0.00,,,0.00,WeatherCatV1.11B39,2013-01-29 13:59:00,
2013-01-29 06:04:00,31.4,30.4,30.26,NNW,330,0.0,1.0,96,0.00,,,0.00,WeatherCatV1.11B39,2013-01-29 14:04:00,
2013-01-29 06:09:00,31.6,30.6,30.26,NNW,330,1.0,1.0,96,0.00,,,0.00,WeatherCatV1.11B39,2013-01-29 14:09:00,
2013-01-29 06:14:00,31.5,30.5,30.26,NNW,330,0.0,0.0,96,0.00,,,0.00,WeatherCatV1.11B39,2013-01-29 14:14:00,
2013-01-29 06:19:00,31.4,30.4,30.26,NNW,330,0.0,0.0,96,0.00,,,0.00,WeatherCatV1.11B39,2013-01-29 14:19:00,
2013-01-29 06:24:00,31.3,30.3,30.26,NNW,330,0.0,0.0,96,0.00,,,0.00,WeatherCatV1.11B39,2013-01-29 14:24:00,
2013-01-29 06:29:00,31.2,30.2,30.26,NNW,330,0.0,0.0,96,0.00,,,0.00,WeatherCatV1.11B39,2013-01-29 14:29:00,
2013-01-29 06:34:00,31.1,30.1,30.26,NNW,330,0.0,0.0,96,0.00,,,0.00,WeatherCatV1.11B39,2013-01-29 14:34:00,
2013-01-29 06:39:00,31.0,30.0,30.27,NNW,330,0.0,0.0,96,0.00,,,0.00,WeatherCatV1.11B39,2013-01-29 14:39:00,
2013-01-29 06:44:00,30.9,29.9,30.27,NNW,330,0.0,0.0,96,0.00,,,0.00,WeatherCatV1.11B39,2013-01-29 14:44:00,
2013-01-29 06:49:00,30.8,29.8,30.27,NNW,330,0.0,0.0,96,0.00,,,0.00,WeatherCatV1.11B39,2013-01-29 14:49:00,
2013-01-29 06:54:00,30.7,29.7,30.27,NNW,330,0.0,0.0,96,0.00,,,0.00,WeatherCatV1.11B39,2013-01-29 14:54:00,
2013-01-29 06:59:00,30.5,29.5,30.27,NNW,330,0.0,0.0,96,0.00,,,0.00,WeatherCatV1.11B39,2013-01-29 14:59:00,
2013-01-29 07:04:00,30.4,29.4,30.28,NNW,330,0.0,0.0,96,0.00,,,0.00,WeatherCatV1.11B39,2013-01-29 15:04:00,
2013-01-29 07:09:00,30.3,29.3,30.28,NNW,330,0.0,0.0,96,0.00,,,0.00,WeatherCatV1.11B39,2013-01-29 15:09:00,
2013-01-29 07:14:00,30.3,29.3,30.28,NNW,330,0.0,0.0,96,0.00,,,0.00,WeatherCatV1.11B39,2013-01-29 15:14:00,
2013-01-29 07:19:00,30.3,29.3,30.28,NNW,330,0.0,0.0,96,0.00,,,0.00,WeatherCatV1.11B39,2013-01-29 15:19:00,
2013-01-29 07:24:00,30.4,29.4,30.28,NNW,330,0.0,0.0,96,0.00,,,0.00,WeatherCatV1.11B39,2013-01-29 15:24:00,
2013-01-29 07:29:00,30.4,29.4,30.28,NNW,330,0.0,0.0,96,0.00,,,0.00,WeatherCatV1.11B39,2013-01-29 15:29:00,
2013-01-29 07:34:00,30.5,29.5,30.28,NNW,330,0.0,0.0,96,0.00,,,0.00,WeatherCatV1.11B39,2013-01-29 15:34:00,
2013-01-29 07:39:00,30.7,29.7,30.28,NNW,330,0.0,0.0,96,0.00,,,0.00,WeatherCatV1.11B39,2013-01-29 15:39:00,
2013-01-29 07:44:00,31.1,30.4,30.28,NNW,330,0.0,0.0,97,0.00,,,0.00,WeatherCatV1.11B39,2013-01-29 15:44:00,
2013-01-29 07:49:00,31.2,30.5,30.29,NNW,330,0.0,0.0,97,0.00,,,0.00,WeatherCatV1.11B39,2013-01-29 15:49:00,
2013-01-29 07:54:00,31.9,31.1,30.29,NNW,330,0.0,1.0,97,0.00,,,0.00,WeatherCatV1.11B39,2013-01-29 15:54:00,
2013-01-29 07:59:00,32.7,31.9,30.29,NNW,330,0.0,0.0,97,0.00,,,0.00,WeatherCatV1.11B39,2013-01-29 15:59:00,
2013-01-29 08:04:00,33.1,32.3,30.29,NNW,330,0.0,1.0,97,0.00,,,0.00,WeatherCatV1.11B39,2013-01-29 16:04:00,
2013-01-29 08:09:00,33.4,32.6,30.29,NNW,330,0.0,0.0,97,0.00,,,0.00,WeatherCatV1.11B39,2013-01-29 16:09:00,
2013-01-29 08:14:00,33.8,33.0,30.29,NNW,330,0.0,0.0,97,0.00,,,0.00,WeatherCatV1.11B39,2013-01-29 16:14:00,
2013-01-29 08:19:00,34.2,33.4,30.29,NNW,330,0.0,1.0,97,0.00,,,0.00,WeatherCatV1.11B39,2013-01-29 16:19:00,
2013-01-29 08:24:00,34.6,33.8,30.29,NNW,330,0.0,0.0,97,0.00,,,0.00,WeatherCatV1.11B39,2013-01-29 16:24:00,
2013-01-29 08:29:00,35.0,34.2,30.29,NNW,330,0.0,0.0,97,0.00,,,0.00,WeatherCatV1.11B39,2013-01-29 16:29:00,
2013-01-29 08:34:00,35.4,34.6,30.30,NNW,330,0.0,2.0,97,0.00,,,0.00,WeatherCatV1.11B39,2013-01-29 16:34:00,
2013-01-29 08:39:00,35.8,35.0,30.30,NNW,330,0.0,0.0,97,0.00,,,0.00,WeatherCatV1.11B39,2013-01-29 16:39:00,
2013-01-29 08:44:00,36.3,35.5,30.30,NNW,330,0.0,1.0,97,0.00,,,0.00,WeatherCatV1.11B39,2013-01-29 16:44:00,
2013-01-29 08:49:00,37.0,36.2,30.29,NNW,330,0.0,0.0,97,0.00,,,0.00,WeatherCatV1.11B39,2013-01-29 16:49:00,
2013-01-29 08:54:00,37.8,37.3,30.29,NNW,330,0.0,0.0,98,0.00,,,0.00,WeatherCatV1.11B39,2013-01-29 16:54:00,
2013-01-29 08:59:00,38.2,37.7,30.30,NNW,330,0.0,1.0,98,0.00,,,0.00,WeatherCatV1.11B39,2013-01-29 16:59:00,
2013-01-29 09:04:00,38.6,37.8,30.30,NNW,330,0.0,2.0,97,0.00,,,0.00,WeatherCatV1.11B39,2013-01-29 17:04:00,
2013-01-29 09:09:00,38.9,38.1,30.30,NNW,330,0.0,0.0,97,0.00,,,0.00,WeatherCatV1.11B39,2013-01-29 17:09:00,
2013-01-29 09:14:00,39.4,38.6,30.30,NNW,330,0.0,1.0,97,0.00,,,0.00,WeatherCatV1.11B39,2013-01-29 17:14:00,
2013-01-29 09:19:00,39.8,39.0,30.30,NNW,330,1.0,1.0,97,0.00,,,0.00,WeatherCatV1.11B39,2013-01-29 17:19:00,
2013-01-29 09:24:00,40.0,39.2,30.30,NNW,330,0.0,1.0,97,0.00,,,0.00,WeatherCatV1.11B39,2013-01-29 17:24:00,
2013-01-29 09:29:00,40.4,39.4,30.30,NNW,330,0.0,1.0,96,0.00,,,0.00,WeatherCatV1.11B39,2013-01-29 17:29:00,
2013-01-29 09:34:00,40.8,39.7,30.30,NNW,330,0.0,0.0,96,0.00,,,0.00,WeatherCatV1.11B39,2013-01-29 17:34:00,
2013-01-29 09:39:00,41.2,39.9,30.30,NNW,330,0.0,0.0,95,0.00,,,0.00,WeatherCatV1.11B39,2013-01-29 17:39:00,
2013-01-29 09:44:00,41.8,40.5,30.30,NNW,330,1.0,1.0,95,0.00,,,0.00,WeatherCatV1.11B39,2013-01-29 17:44:00,
2013-01-29 09:49:00,42.4,40.8,30.30,NNW,330,1.0,2.0,94,0.00,,,0.00,WeatherCatV1.11B39,2013-01-29 17:49:00,
2013-01-29 09:54:00,42.9,40.7,30.30,NNW,330,0.0,3.0,92,0.00,,,0.00,WeatherCatV1.11B39,2013-01-29 17:54:00,
2013-01-29 09:59:00,43.4,40.7,30.30,NE,52,2.0,4.0,90,0.00,,,0.00,WeatherCatV1.11B39,2013-01-29 17:59:00,
2013-01-29 10:04:00,43.8,40.5,30.30,NE,52,2.0,4.0,88,0.00,,,0.00,WeatherCatV1.11B39,2013-01-29 18:04:00,
2013-01-29 10:09:00,44.0,40.1,30.30,NE,53,1.0,2.0,86,0.00,,,0.00,WeatherCatV1.11B39,2013-01-29 18:09:00,
2013-01-29 10:14:00,44.5,40.6,30.30,NE,53,3.0,3.0,86,0.00,,,0.00,WeatherCatV1.11B39,2013-01-29 18:14:00,
2013-01-29 10:19:00,44.9,40.4,30.30,NE,53,0.0,1.0,84,0.00,,,0.00,WeatherCatV1.11B39,2013-01-29 18:19:00,
2013-01-29 10:24:00,45.4,40.5,30.30,NE,53,0.0,3.0,83,0.00,,,0.00,WeatherCatV1.11B39,2013-01-29 18:24:00,
2013-01-29 10:29:00,45.6,40.4,30.30,NE,53,0.0,2.0,82,0.00,,,0.00,WeatherCatV1.11B39,2013-01-29 18:29:00,
2013-01-29 10:34:00,45.9,40.4,30.30,NE,53,0.0,1.0,81,0.00,,,0.00,WeatherCatV1.11B39,2013-01-29 18:34:00,
2013-01-29 10:39:00,46.7,41.2,30.30,NE,53,0.0,0.0,81,0.00,,,0.00,WeatherCatV1.11B39,2013-01-29 18:39:00,
2013-01-29 10:44:00,47.3,41.1,30.30,NE,53,1.0,3.0,79,0.00,,,0.00,WeatherCatV1.11B39,2013-01-29 18:44:00,
2013-01-29 10:49:00,47.6,41.1,30.30,NE,53,0.0,0.0,78,0.00,,,0.00,WeatherCatV1.11B39,2013-01-29 18:49:00,
2013-01-29 10:54:00,48.0,41.1,30.30,NE,53,3.0,3.0,77,0.00,,,0.00,WeatherCatV1.11B39,2013-01-29 18:54:00,
2013-01-29 10:59:00,48.1,41.2,30.30,NE,53,0.0,0.0,77,0.00,,,0.00,WeatherCatV1.11B39,2013-01-29 18:59:00,
2013-01-29 11:04:00,48.3,41.4,30.30,NE,53,3.0,3.0,77,0.00,,,0.00,WeatherCatV1.11B39,2013-01-29 19:04:00,
2013-01-29 11:09:00,48.7,41.5,30.30,NE,53,1.0,3.0,76,0.00,,,0.00,WeatherCatV1.11B39,2013-01-29 19:09:00,
2013-01-29 11:14:00,49.1,41.9,30.30,NE,53,1.0,2.0,76,0.00,,,0.00,WeatherCatV1.11B39,2013-01-29 19:14:00,
2013-01-29 11:19:00,49.4,41.5,30.30,NE,55,0.0,1.0,74,0.00,,,0.00,WeatherCatV1.11B39,2013-01-29 19:19:00,
2013-01-29 11:24:00,49.6,41.3,30.30,NE,55,1.0,2.0,73,0.00,,,0.00,WeatherCatV1.11B39,2013-01-29 19:24:00,
2013-01-29 11:29:00,49.5,40.9,30.29,NE,52,3.0,3.0,72,0.00,,,0.00,WeatherCatV1.11B39,2013-01-29 19:29:00,
2013-01-29 11:34:00,49.5,41.6,30.29,NE,52,1.0,2.0,74,0.00,,,0.00,WeatherCatV1.11B39,2013-01-29 19:34:00,
2013-01-29 11:39:00,50.0,41.7,30.29,NE,52,0.0,2.0,73,0.00,,,0.00,WeatherCatV1.11B39,2013-01-29 19:39:00,
2013-01-29 11:44:00,50.4,41.7,30.29,NE,52,1.0,2.0,72,0.00,,,0.00,WeatherCatV1.11B39,2013-01-29 19:44:00,
2013-01-29 11:49:00,50.7,41.3,30.28,ENE,66,3.0,3.0,70,0.00,,,0.00,WeatherCatV1.11B39,2013-01-29 19:49:00,
2013-01-29 11:54:00,50.6,41.2,30.29,ENE,66,0.0,0.0,70,0.00,,,0.00,WeatherCatV1.11B39,2013-01-29 19:54:00,
2013-01-29 11:56:00,50.7,41.6,30.28,ENE,66,0.0,1.0,71,0.00,,,0.00,WeatherCatV1.11B39,2013-01-29 19:56:00,
2013-01-29 12:01:00,51.0,41.6,30.28,ENE,65,0.0,2.0,70,0.00,,,0.00,WeatherCatV1.11B39,2013-01-29 20:01:00,
2013-01-29 12:06:00,51.3,41.9,30.28,North,351,2.0,2.0,70,0.00,,,0.00,WeatherCatV1.11B39,2013-01-29 20:06:00,
2013-01-29 12:11:00,51.3,41.5,30.28,North,349,0.0,2.0,69,0.00,,,0.00,WeatherCatV1.11B39,2013-01-29 20:11:00,
2013-01-29 12:16:00,51.6,41.8,30.28,NNW,340,0.0,1.0,69,0.00,,,0.00,WeatherCatV1.11B39,2013-01-29 20:16:00,
2013-01-29 12:21:00,51.9,42.1,30.28,NNW,327,0.0,2.0,69,0.00,,,0.00,WeatherCatV1.11B39,2013-01-29 20:21:00,
2013-01-29 12:26:00,52.2,41.6,30.28,NW,317,0.0,2.0,67,0.00,,,0.00,WeatherCatV1.11B39,2013-01-29 20:26:00,
2013-01-29 12:31:00,52.4,41.8,30.27,NNE,24,0.0,3.0,67,0.00,,,0.00,WeatherCatV1.11B39,2013-01-29 20:31:00,
2013-01-29 12:36:00,52.7,41.7,30.27,NNE,24,0.0,1.0,66,0.00,,,0.00,WeatherCatV1.11B39,2013-01-29 20:36:00,
2013-01-29 12:41:00,53.0,41.6,30.27,ESE,118,0.0,4.0,65,0.00,,,0.00,WeatherCatV1.11B39,2013-01-29 20:41:00,
2013-01-29 12:46:00,53.4,41.9,30.27,South,186,3.0,3.0,65,0.00,,,0.00,WeatherCatV1.11B39,2013-01-29 20:46:00,
2013-01-29 12:51:00,53.7,41.8,30.27,SSW,206,2.0,3.0,64,0.00,,,0.00,WeatherCatV1.11B39,2013-01-29 20:51:00,
2013-01-29 12:56:00,54.1,42.2,30.27,SSW,209,0.0,0.0,64,0.00,,,0.00,WeatherCatV1.11B39,2013-01-29 20:56:00,
2013-01-29 13:01:00,54.1,41.8,30.26,NNW,342,1.0,4.0,63,0.00,,,0.00,WeatherCatV1.11B39,2013-01-29 21:01:00,
2013-01-29 13:06:00,54.1,42.6,30.26,NNW,329,4.0,4.0,65,0.00,,,0.00,WeatherCatV1.11B39,2013-01-29 21:06:00,
2013-01-29 13:11:00,54.4,42.5,30.26,WNW,302,0.0,4.0,64,0.00,,,0.00,WeatherCatV1.11B39,2013-01-29 21:11:00,
2013-01-29 13:16:00,54.4,42.1,30.26,SW,233,0.0,1.0,63,0.00,,,0.00,WeatherCatV1.11B39,2013-01-29 21:16:00,
2013-01-29 13:21:00,54.8,42.4,30.26,SW,236,0.0,2.0,63,0.00,,,0.00,WeatherCatV1.11B39,2013-01-29 21:21:00,
2013-01-29 13:26:00,54.8,42.9,30.26,West,275,3.0,4.0,64,0.00,,,0.00,WeatherCatV1.11B39,2013-01-29 21:26:00,
2013-01-29 13:31:00,54.9,42.5,30.25,NW,319,0.0,1.0,63,0.00,,,0.00,WeatherCatV1.11B39,2013-01-29 21:31:00,
2013-01-29 13:36:00,54.8,42.4,30.25,NW,325,0.0,2.0,63,0.00,,,0.00,WeatherCatV1.11B39,2013-01-29 21:36:00,
2013-01-29 13:41:00,54.8,42.0,30.25,NNW,348,0.0,5.0,62,0.00,,,0.00,WeatherCatV1.11B39,2013-01-29 21:41:00,
2013-01-29 13:46:00,54.7,42.4,30.25,North,350,4.0,4.0,63,0.00,,,0.00,WeatherCatV1.11B39,2013-01-29 21:46:00,
2013-01-29 13:51:00,54.8,42.0,30.24,NNW,336,0.0,2.0,62,0.00,,,0.00,WeatherCatV1.11B39,2013-01-29 21:51:00,
2013-01-29 13:56:00,55.0,41.8,30.24,WSW,255,3.0,5.0,61,0.00,,,0.00,WeatherCatV1.11B39,2013-01-29 21:56:00,
2013-01-29 14:01:00,55.3,41.7,30.24,West,277,1.0,4.0,60,0.00,,,0.00,WeatherCatV1.11B39,2013-01-29 22:01:00,
2013-01-29 14:06:00,55.2,41.6,30.24,NW,319,0.0,1.0,60,0.00,,,0.00,WeatherCatV1.11B39,2013-01-29 22:06:00,
2013-01-29 14:11:00,55.2,41.6,30.24,NW,319,1.0,2.0,60,0.00,,,0.00,WeatherCatV1.11B39,2013-01-29 22:11:00,
2013-01-29 14:16:00,55.3,42.1,30.24,North,0,5.0,5.0,61,0.00,,,0.00,WeatherCatV1.11B39,2013-01-29 22:16:00,
2013-01-29 14:21:00,55.2,42.0,30.24,North,355,0.0,5.0,61,0.00,,,0.00,WeatherCatV1.11B39,2013-01-29 22:21:00,
2013-01-29 14:26:00,55.1,41.5,30.23,NW,306,3.0,4.0,60,0.00,,,0.00,WeatherCatV1.11B39,2013-01-29 22:26:00,
2013-01-29 14:31:00,55.3,41.7,30.23,West,260,1.0,5.0,60,0.00,,,0.00,WeatherCatV1.11B39,2013-01-29 22:31:00,
2013-01-29 14:36:00,55.5,42.3,30.23,NW,306,1.0,4.0,61,0.00,,,0.00,WeatherCatV1.11B39,2013-01-29 22:36:00,
2013-01-29 14:41:00,55.7,42.0,30.24,NW,311,0.0,1.0,60,0.00,,,0.00,WeatherCatV1.11B39,2013-01-29 22:41:00,
2013-01-29 14:46:00,55.8,41.7,30.24,NW,309,2.0,3.0,59,0.00,,,0.00,WeatherCatV1.11B39,2013-01-29 22:46:00,
2013-01-29 14:51:00,55.6,41.5,30.24,North,350,5.0,5.0,59,0.00,,,0.00,WeatherCatV1.11B39,2013-01-29 22:51:00,
2013-01-29 14:56:00,55.3,41.2,30.24,NNW,342,2.0,3.0,59,0.00,,,0.00,WeatherCatV1.11B39,2013-01-29 22:56:00,
2013-01-29 15:01:00,55.2,41.1,30.24,NNW,331,0.0,5.0,59,0.00,,,0.00,WeatherCatV1.11B39,2013-01-29 23:01:00,
2013-01-29 15:06:00,55.3,40.8,30.24,NNW,338,2.0,6.0,58,0.00,,,0.00,WeatherCatV1.11B39,2013-01-29 23:06:00,
2013-01-29 15:11:00,55.3,41.2,30.24,NNW,331,1.0,3.0,59,0.00,,,0.00,WeatherCatV1.11B39,2013-01-29 23:11:00,
2013-01-29 15:16:00,55.3,40.8,30.23,NNW,330,1.0,2.0,58,0.00,,,0.00,WeatherCatV1.11B39,2013-01-29 23:16:00,
2013-01-29 15:21:00,55.2,40.7,30.23,NW,323,1.0,1.0,58,0.00,,,0.00,WeatherCatV1.11B39,2013-01-29 23:21:00,
2013-01-29 15:26:00,55.0,40.9,30.23,NW,323,1.0,4.0,59,0.00,,,0.00,WeatherCatV1.11B39,2013-01-29 23:26:00,
2013-01-29 15:31:00,54.8,40.7,30.23,NW,322,3.0,4.0,59,0.00,,,0.00,WeatherCatV1.11B39,2013-01-29 23:31:00,
2013-01-29 15:36:00,54.6,41.0,30.23,NW,317,1.0,1.0,60,0.00,,,0.00,WeatherCatV1.11B39,2013-01-29 23:36:00,
2013-01-29 15:41:00,54.4,40.8,30.23,NW,325,3.0,6.0,60,0.00,,,0.00,WeatherCatV1.11B39,2013-01-29 23:41:00,
2013-01-29 15:46:00,54.2,40.6,30.23,NW,325,2.0,4.0,60,0.00,,,0.00,WeatherCatV1.11B39,2013-01-29 23:46:00,
2013-01-29 15:51:00,54.1,41.0,30.23,NNW,327,1.0,4.0,61,0.00,,,0.00,WeatherCatV1.11B39,2013-01-29 23:51:00,
2013-01-29 15:56:00,53.9,40.3,30.24,NW,326,1.0,3.0,60,0.00,,,0.00,WeatherCatV1.11B39,2013-01-29 23:56:00,
2013-01-29 16:01:00,53.7,40.6,30.23,NW,326,0.0,3.0,61,0.00,,,0.00,WeatherCatV1.11B39,2013-01-30 00:01:00,
2013-01-29 16:06:00,53.6,40.5,30.24,NW,317,3.0,5.0,61,0.00,,,0.00,WeatherCatV1.11B39,2013-01-30 00:06:00,
2013-01-29 16:11:00,53.4,40.7,30.24,NW,321,1.0,3.0,62,0.00,,,0.00,WeatherCatV1.11B39,2013-01-30 00:11:00,
2013-01-29 16:16:00,53.3,40.6,30.23,NW,323,2.0,4.0,62,0.00,,,0.00,WeatherCatV1.11B39,2013-01-30 00:16:00,
2013-01-29 16:21:00,53.1,40.4,30.23,NW,323,0.0,1.0,62,0.00,,,0.00,WeatherCatV1.11B39,2013-01-30 00:21:00,
2013-01-29 16:26:00,53.0,40.7,30.24,NW,323,0.0,1.0,63,0.00,,,0.00,WeatherCatV1.11B39,2013-01-30 00:26:00,
2013-01-29 16:31:00,52.9,41.1,30.24,NW,323,2.0,2.0,64,0.00,,,0.00,WeatherCatV1.11B39,2013-01-30 00:31:00,
2013-01-29 16:36:00,52.7,40.9,30.23,NW,323,0.0,1.0,64,0.00,,,0.00,WeatherCatV1.11B39,2013-01-30 00:36:00,
2013-01-29 16:41:00,52.6,40.8,30.24,NW,323,2.0,2.0,64,0.00,,,0.00,WeatherCatV1.11B39,2013-01-30 00:41:00,
2013-01-29 16:46:00,52.4,41.0,30.24,NW,323,0.0,1.0,65,0.00,,,0.00,WeatherCatV1.11B39,2013-01-30 00:46:00,
2013-01-29 16:51:00,52.2,40.8,30.23,NW,323,0.0,1.0,65,0.00,,,0.00,WeatherCatV1.11B39,2013-01-30 00:51:00,
2013-01-29 16:56:00,52.0,40.6,30.23,NW,323,0.0,0.0,65,0.00,,,0.00,WeatherCatV1.11B39,2013-01-30 00:56:00,
2013-01-29 17:01:00,51.8,40.4,30.24,NW,323,0.0,2.0,65,0.00,,,0.00,WeatherCatV1.11B39,2013-01-30 01:01:00,
2013-01-29 17:06:00,51.6,40.6,30.24,NW,323,0.0,0.0,66,0.00,,,0.00,WeatherCatV1.11B39,2013-01-30 01:06:00,
2013-01-29 17:11:00,51.4,40.4,30.24,NW,323,0.0,1.0,66,0.00,,,0.00,WeatherCatV1.11B39,2013-01-30 01:11:00,
2013-01-29 17:16:00,51.1,40.5,30.24,NW,323,0.0,0.0,67,0.00,,,0.00,WeatherCatV1.11B39,2013-01-30 01:16:00,
2013-01-29 17:21:00,50.9,40.3,30.24,NW,323,0.0,1.0,67,0.00,,,0.00,WeatherCatV1.11B39,2013-01-30 01:21:00,
2013-01-29 17:26:00,50.6,40.4,30.24,NW,323,0.0,0.0,68,0.00,,,0.00,WeatherCatV1.11B39,2013-01-30 01:26:00,
2013-01-29 17:31:00,50.3,40.1,30.24,NW,323,0.0,0.0,68,0.00,,,0.00,WeatherCatV1.11B39,2013-01-30 01:31:00,
2013-01-29 17:36:00,50.1,40.0,30.24,NW,323,0.0,0.0,68,0.00,,,0.00,WeatherCatV1.11B39,2013-01-30 01:36:00,
2013-01-29 17:41:00,49.9,40.1,30.24,NW,323,0.0,1.0,69,0.00,,,0.00,WeatherCatV1.11B39,2013-01-30 01:41:00,
2013-01-29 17:46:00,49.6,39.9,30.24,NW,323,0.0,0.0,69,0.00,,,0.00,WeatherCatV1.11B39,2013-01-30 01:46:00,
2013-01-29 17:51:00,49.4,39.7,30.25,NW,323,0.0,0.0,69,0.00,,,0.00,WeatherCatV1.11B39,2013-01-30 01:51:00,
2013-01-29 17:56:00,49.1,39.7,30.25,NW,323,0.0,0.0,70,0.00,,,0.00,WeatherCatV1.11B39,2013-01-30 01:56:00,
2013-01-29 18:01:00,48.8,39.8,30.25,NW,323,0.0,0.0,71,0.00,,,0.00,WeatherCatV1.11B39,2013-01-30 02:01:00,
2013-01-29 18:06:00,48.6,39.6,30.25,NW,323,0.0,0.0,71,0.00,,,0.00,WeatherCatV1.11B39,2013-01-30 02:06:00,
2013-01-29 18:11:00,48.3,39.3,30.25,NW,323,0.0,0.0,71,0.00,,,0.00,WeatherCatV1.11B39,2013-01-30 02:11:00,
2013-01-29 18:16:00,48.1,39.1,30.25,NW,323,0.0,0.0,71,0.00,,,0.00,WeatherCatV1.11B39,2013-01-30 02:16:00,
2013-01-29 18:21:00,47.8,39.2,30.25,NW,323,0.0,0.0,72,0.00,,,0.00,WeatherCatV1.11B39,2013-01-30 02:21:00,
2013-01-29 18:26:00,47.5,38.9,30.26,NW,323,0.0,0.0,72,0.00,,,0.00,WeatherCatV1.11B39,2013-01-30 02:26:00,
2013-01-29 18:31:00,47.2,39.0,30.26,NW,323,0.0,0.0,73,0.00,,,0.00,WeatherCatV1.11B39,2013-01-30 02:31:00,
2013-01-29 18:36:00,46.9,39.1,30.26,NW,323,0.0,0.0,74,0.00,,,0.00,WeatherCatV1.11B39,2013-01-30 02:36:00,
2013-01-29 18:41:00,46.6,38.8,30.26,NW,323,0.0,0.0,74,0.00,,,0.00,WeatherCatV1.11B39,2013-01-30 02:41:00,
2013-01-29 18:46:00,46.4,38.9,30.27,NW,323,0.0,0.0,75,0.00,,,0.00,WeatherCatV1.11B39,2013-01-30 02:46:00,
2013-01-29 18:51:00,46.2,38.7,30.26,NW,323,0.0,0.0,75,0.00,,,0.00,WeatherCatV1.11B39,2013-01-30 02:51:00,
2013-01-29 18:56:00,46.0,38.9,30.27,NW,323,0.0,0.0,76,0.00,,,0.00,WeatherCatV1.11B39,2013-01-30 02:56:00,
2013-01-29 19:01:00,45.8,39.0,30.27,NW,323,0.0,0.0,77,0.00,,,0.00,WeatherCatV1.11B39,2013-01-30 03:01:00,
2013-01-29 19:06:00,45.6,38.8,30.27,NW,323,0.0,0.0,77,0.00,,,0.00,WeatherCatV1.11B39,2013-01-30 03:06:00,
2013-01-29 19:11:00,45.5,39.0,30.27,NW,323,0.0,0.0,78,0.00,,,0.00,WeatherCatV1.11B39,2013-01-30 03:11:00,
2013-01-29 19:16:00,45.5,39.0,30.27,NW,323,0.0,0.0,78,0.00,,,0.00,WeatherCatV1.11B39,2013-01-30 03:16:00,
2013-01-29 19:21:00,45.4,38.9,30.26,NW,323,0.0,0.0,78,0.00,,,0.00,WeatherCatV1.11B39,2013-01-30 03:21:00,
2013-01-29 19:26:00,45.2,38.8,30.27,NW,323,0.0,0.0,78,0.00,,,0.00,WeatherCatV1.11B39,2013-01-30 03:26:00,
2013-01-29 19:31:00,45.1,38.3,30.27,NW,323,0.0,0.0,77,0.00,,,0.00,WeatherCatV1.11B39,2013-01-30 03:31:00,
2013-01-29 19:36:00,44.9,38.8,30.27,NW,323,0.0,2.0,79,0.00,,,0.00,WeatherCatV1.11B39,2013-01-30 03:36:00,
2013-01-29 19:41:00,44.8,38.7,30.27,NW,323,0.0,0.0,79,0.00,,,0.00,WeatherCatV1.11B39,2013-01-30 03:41:00,
2013-01-29 19:46:00,44.7,38.6,30.27,NW,323,0.0,0.0,79,0.00,,,0.00,WeatherCatV1.11B39,2013-01-30 03:46:00,
2013-01-29 19:51:00,44.6,38.5,30.27,NW,323,0.0,0.0,79,0.00,,,0.00,WeatherCatV1.11B39,2013-01-30 03:51:00,
2013-01-29 19:56:00,44.5,38.4,30.27,NW,323,0.0,0.0,79,0.00,,,0.00,WeatherCatV1.11B39,2013-01-30 03:56:00,
2013-01-29 20:01:00,44.4,38.3,30.28,NW,323,0.0,0.0,79,0.00,,,0.00,WeatherCatV1.11B39,2013-01-30 04:01:00,
2013-01-29 20:06:00,44.2,38.1,30.28,NW,323,0.0,0.0,79,0.00,,,0.00,WeatherCatV1.11B39,2013-01-30 04:06:00,
2013-01-29 20:11:00,44.0,38.2,30.28,NW,323,0.0,0.0,80,0.00,,,0.00,WeatherCatV1.11B39,2013-01-30 04:11:00,
2013-01-29 20:16:00,43.8,38.0,30.28,NW,323,0.0,0.0,80,0.00,,,0.00,WeatherCatV1.11B39,2013-01-30 04:16:00,
2013-01-29 20:21:00,43.8,38.4,30.28,NW,323,0.0,0.0,81,0.00,,,0.00,WeatherCatV1.11B39,2013-01-30 04:21:00,
2013-01-29 20:26:00,43.6,38.2,30.28,NW,323,0.0,0.0,81,0.00,,,0.00,WeatherCatV1.11B39,2013-01-30 04:26:00,
2013-01-29 20:31:00,43.6,38.2,30.28,NW,323,0.0,0.0,81,0.00,,,0.00,WeatherCatV1.11B39,2013-01-30 04:31:00,
2013-01-29 20:36:00,43.4,38.0,30.28,NW,323,0.0,0.0,81,0.00,,,0.00,WeatherCatV1.11B39,2013-01-30 04:36:00,
2013-01-29 20:41:00,43.2,37.8,30.28,NW,323,0.0,0.0,81,0.00,,,0.00,WeatherCatV1.11B39,2013-01-30 04:41:00,
2013-01-29 20:46:00,43.1,37.7,30.28,NW,323,0.0,1.0,81,0.00,,,0.00,WeatherCatV1.11B39,2013-01-30 04:46:00,
2013-01-29 20:51:00,43.0,37.9,30.28,NW,323,0.0,0.0,82,0.00,,,0.00,WeatherCatV1.11B39,2013-01-30 04:51:00,
2013-01-29 20:56:00,42.9,37.8,30.28,NW,323,0.0,0.0,82,0.00,,,0.00,WeatherCatV1.11B39,2013-01-30 04:56:00,
2013-01-29 21:00:00,42.9,37.8,30.28,NW,323,0.0,0.0,82,0.00,,,0.00,WeatherCatV1.11B39,2013-01-30 05:00:00,
2013-01-29 21:02:00,42.8,37.7,30.28,NW,323,0.0,0.0,82,0.00,,,0.00,WeatherCatV1.11B39,2013-01-30 05:02:00,
2013-01-29 21:07:00,42.6,37.5,30.28,NW,323,0.0,0.0,82,0.00,,,0.00,WeatherCatV1.11B39,2013-01-30 05:07:00,
2013-01-29 21:12:00,42.5,37.7,30.28,NW,323,0.0,0.0,83,0.00,,,0.00,WeatherCatV1.11B39,2013-01-30 05:12:00,
2013-01-29 21:17:00,42.3,37.5,30.28,NW,323,0.0,0.0,83,0.00,,,0.00,WeatherCatV1.11B39,2013-01-30 05:17:00,
2013-01-29 21:22:00,42.2,37.4,30.28,NW,323,0.0,0.0,83,0.00,,,0.00,WeatherCatV1.11B39,2013-01-30 05:22:00,
2013-01-29 21:27:00,42.1,37.3,30.28,NW,323,0.0,0.0,83,0.00,,,0.00,WeatherCatV1.11B39,2013-01-30 05:27:00,
2013-01-29 21:32:00,41.9,36.8,30.28,NW,323,0.0,0.0,82,0.00,,,0.00,WeatherCatV1.11B39,2013-01-30 05:32:00,
2013-01-29 21:37:00,41.5,36.1,30.28,NW,323,0.0,0.0,81,0.00,,,0.00,WeatherCatV1.11B39,2013-01-30 05:37:00,
2013-01-29 21:42:00,41.2,35.8,30.28,NW,323,0.0,0.0,81,0.00,,,0.00,WeatherCatV1.11B39,2013-01-30 05:42:00,
2013-01-29 21:47:00,41.0,35.6,30.28,NW,323,0.0,0.0,81,0.00,,,0.00,WeatherCatV1.11B39,2013-01-30 05:47:00,
2013-01-29 21:52:00,40.7,35.9,30.28,NW,323,0.0,0.0,83,0.00,,,0.00,WeatherCatV1.11B39,2013-01-30 05:52:00,
2013-01-29 21:57:00,40.4,35.7,30.28,NW,323,0.0,0.0,83,0.00,,,0.00,WeatherCatV1.11B39,2013-01-30 05:57:00,
2013-01-29 22:02:00,40.1,35.4,30.28,NW,323,0.0,0.0,83,0.00,,,0.00,WeatherCatV1.11B39,2013-01-30 06:02:00,
2013-01-29 22:07:00,39.9,35.5,30.28,NW,323,0.0,0.0,84,0.00,,,0.00,WeatherCatV1.11B39,2013-01-30 06:07:00,
2013-01-29 22:12:00,39.7,35.3,30.28,NW,323,0.0,0.0,84,0.00,,,0.00,WeatherCatV1.11B39,2013-01-30 06:12:00,
2013-01-29 22:17:00,39.4,35.0,30.28,NW,323,0.0,0.0,84,0.00,,,0.00,WeatherCatV1.11B39,2013-01-30 06:17:00,
2013-01-29 22:22:00,39.1,34.7,30.28,NW,323,0.0,0.0,84,0.00,,,0.00,WeatherCatV1.11B39,2013-01-30 06:22:00,
2013-01-29 22:27:00,38.8,34.1,30.28,NW,323,0.0,0.0,83,0.00,,,0.00,WeatherCatV1.11B39,2013-01-30 06:27:00,
2013-01-29 22:32:00,38.5,34.1,30.28,NW,323,0.0,0.0,84,0.00,,,0.00,WeatherCatV1.11B39,2013-01-30 06:32:00,
2013-01-29 22:37:00,38.3,33.9,30.28,NW,323,0.0,0.0,84,0.00,,,0.00,WeatherCatV1.11B39,2013-01-30 06:37:00,
2013-01-29 22:42:00,38.1,34.0,30.29,NW,323,0.0,0.0,85,0.00,,,0.00,WeatherCatV1.11B39,2013-01-30 06:42:00,
2013-01-29 22:47:00,37.9,33.8,30.29,NW,323,0.0,0.0,85,0.00,,,0.00,WeatherCatV1.11B39,2013-01-30 06:47:00,
2013-01-29 22:52:00,37.8,34.0,30.29,NW,323,0.0,0.0,86,0.00,,,0.00,WeatherCatV1.11B39,2013-01-30 06:52:00,
2013-01-29 22:57:00,37.6,34.1,30.29,NW,323,0.0,0.0,87,0.00,,,0.00,WeatherCatV1.11B39,2013-01-30 06:57:00,
2013-01-29 23:02:00,37.5,34.0,30.29,NW,323,0.0,0.0,87,0.00,,,0.00,WeatherCatV1.11B39,2013-01-30 07:02:00,
2013-01-29 23:07:00,37.4,34.2,30.29,NW,323,0.0,0.0,88,0.00,,,0.00,WeatherCatV1.11B39,2013-01-30 07:07:00,
2013-01-29 23:12:00,37.3,34.1,30.29,NW,323,0.0,0.0,88,0.00,,,0.00,WeatherCatV1.11B39,2013-01-30 07:12:00,
2013-01-29 23:17:00,37.2,34.3,30.29,NW,323,0.0,0.0,89,0.00,,,0.00,WeatherCatV1.11B39,2013-01-30 07:17:00,
2013-01-29 23:22:00,37.1,34.2,30.29,NW,323,0.0,0.0,89,0.00,,,0.00,WeatherCatV1.11B39,2013-01-30 07:22:00,
2013-01-29 23:27:00,37.0,34.1,30.29,NW,323,0.0,0.0,89,0.00,,,0.00,WeatherCatV1.11B39,2013-01-30 07:27:00,
2013-01-29 23:32:00,36.9,34.0,30.29,NW,323,0.0,0.0,89,0.00,,,0.00,WeatherCatV1.11B39,2013-01-30 07:32:00,
2013-01-29 23:37:00,36.8,34.1,30.29,NW,323,0.0,0.0,90,0.00,,,0.00,WeatherCatV1.11B39,2013-01-30 07:37:00,
2013-01-29 23:42:00,36.6,33.9,30.29,NW,323,0.0,0.0,90,0.00,,,0.00,WeatherCatV1.11B39,2013-01-30 07:42:00,
2013-01-29 23:47:00,36.5,33.9,30.29,NW,323,0.0,0.0,90,0.00,,,0.00,WeatherCatV1.11B39,2013-01-30 07:47:00,
2013-01-29 23:52:00,36.4,33.8,30.29,NW,323,0.0,0.0,90,0.00,,,0.00,WeatherCatV1.11B39,2013-01-30 07:52:00,
2013-01-29 23:57:00,36.2,33.6,30.29,NW,323,0.0,0.0,90,0.00,,,0.00,WeatherCatV1.11B39,2013-01-30 07:57:00,